Regional Weather Roundup
Issued by NWS

Home | Current Version | Previous Version | Text Only | Print | Product List | Glossary Off
Versions: 1 2 3 4 5 6 7 8 9 10 11 12 13 14 15 16 17 18 19 20 21 22 23 24 25 26 27 28 29 30 31 32 33 34 35 36 37 38 39 40 41 42 43 44 45 46 47 48 49 50

000
ASUS43 KIND 101209
RWRIN

WEATHER ROUNDUP FOR INDIANA
NATIONAL WEATHER SERVICE INDIANAPOLIS IN
800 AM EDT THU JUL 10 2014

NOTE: "FAIR" INDICATES FEW OR NO CLOUDS BELOW 12,000 FEET WITH NO
SIGNIFICANT WEATHER AND/OR OBSTRUCTIONS TO VISIBILITY.

* - STATION DOES NOT REPORT WEATHER SUCH AS PRECIPITATION OR FOG.

+ - STATION NOT QUALITY CONTROLLED BY THE NATIONAL WEATHER SERVICE.
    USE DATA WITH CAUTION...ESPECIALLY DEWPOINT AND RELATIVE
    HUMIDITY OBSERVATIONS.

INZ001>003-010>013-019-020-101300-
NORTHWEST INDIANA

CITY           SKY/WX    TMP DP  RH WIND       PRES   REMARKS
GARY /AIRPORT/ MOSUNNY   63  61  94 CALM      30.15R
KNOX *+        FAIR      55  53  94 CALM      30.15R
LA PORTE +     FAIR      60  58  92 CALM      30.15S
6HR MIN TEMP:  52; 6HR MAX TEMP:  60;

MICHIGAN CITY+ FAIR      55  55 100 CALM      30.15R
MONTICELLO +   FAIR      61  56  85 NE3       30.13R
RENSSELAER +   FAIR      59  59 100 NE5       30.14R
VALPARAISO     FAIR      61  57  87 CALM      30.15R
6HR MIN TEMP:  54; 6HR MAX TEMP:  61;


$$

LMZ046-743>745-101300-
SOUTHERN LAKE MICHIGAN

STATION/POSITION TIME  TEMP WIND        PRES
                       AIR  DIR/SP/G
                 (UTC) (F)  (DEG/KT/KT) (MB)
MICHIGAN CITY    1200   62  100/  3/  3   N/A

$$

INZ004-005-014>016-021>024-101300-
NORTH CENTRAL INDIANA

CITY           SKY/WX    TMP DP  RH WIND       PRES   REMARKS
ELKHART        FAIR      59  55  88 NE5       30.15R
GOSHEN         FAIR      61  56  83 N5        30.14R
6HR MIN TEMP:  54; 6HR MAX TEMP:  61;

LOGANSPORT +   FAIR      61  54  77 NE3       30.14R
PERU/GRISSOM   FAIR      62  62  99 NE9       30.13R
6HR MIN TEMP:  57; 6HR MAX TEMP:  65;

ROCHESTER +    FAIR      61  55  82 N3        30.15R
SOUTH BEND     FAIR      61  54  77 NE5       30.16R
6HR MIN TEMP:  54; 6HR MAX TEMP:  61;

WARSAW +       FAIR      59  55  88 CALM      30.14R

$$

INZ006>009-017-018-025>027-101300-
NORTHEAST INDIANA

CITY           SKY/WX    TMP DP  RH WIND       PRES   REMARKS
ANGOLA *+      SUNNY     57  54  88 N3        30.13S
AUBURN +       FAIR      61  54  77 N3        30.14R
FORT WAYNE     FAIR      61  56  83 N7        30.13R
6HR MIN TEMP:  57; 6HR MAX TEMP:  63;

HUNTINGTON +   FAIR      60  55  84 N3        30.13R
6HR MIN TEMP:  56; 6HR MAX TEMP:  61;


$$

INZ028-029-035-036-043>045-051>053-101300-
WEST CENTRAL INDIANA

CITY           SKY/WX    TMP DP  RH WIND       PRES   REMARKS
GREENCASTLE +  FAIR      61  57  88 N5        30.12R
LAFAYETTE      FAIR      63  57  81 NE3       30.12R
6HR MIN TEMP:  56; 6HR MAX TEMP:  64;

TERRE HAUTE    FAIR      63  59  87 N5        30.11R
6HR MIN TEMP:  58; 6HR MAX TEMP:  63;


$$

INZ030>032-037>040-046>048-054>057-064-065-101300-
CENTRAL INDIANA

CITY           SKY/WX    TMP DP  RH WIND       PRES   REMARKS
CP ATTERBURY + FAIR      61  59  94 CALM      30.11R
COLUMBUS       MOSUNNY   61  59  94 MISG      30.11R
GREENWOOD *+   FAIR      66  61  82 NE7       30.11
INDIANAPOLIS   FAIR      65  57  75 NE8       30.10R
6HR MIN TEMP:  61; 6HR MAX TEMP:  65;

-EAGLE CREEK   FAIR      66  56  70 N5        30.11R
6HR MIN TEMP:  62; 6HR MAX TEMP:  66;

KOKOMO *+      FAIR      63  55  77 NE6       30.13R
MARION +       FAIR      62  55  77 N3        30.13R
MT COMFORT *+  FAIR      61 N/A N/A CALM      30.12R
SHELBYVILLE    FAIR      64  58  80 NE3       30.10R
6HR MIN TEMP:  59; 6HR MAX TEMP:  64;

ZIONSVILLE +   PTSUNNY   63  58  83 N3        30.13R
6HR MIN TEMP:  60; 6HR MAX TEMP:  64;


$$

INZ033-034-041-042-049-050-058-059-101300-
EAST CENTRAL INDIANA

CITY           SKY/WX    TMP DP  RH WIND       PRES   REMARKS
MUNCIE         FAIR      64  57  78 N6        30.12R
6HR MIN TEMP:  59; 6HR MAX TEMP:  65;


$$

INZ060-061-067>069-081>083-085>088-101300-
SOUTHWEST INDIANA

CITY           SKY/WX    TMP DP  RH WIND       PRES   REMARKS
EVANSVILLE     FAIR      69  61  75 N5        30.08R
6HR MIN TEMP:  66; 6HR MAX TEMP:  73;

HUNTINGBURG *+ FAIR      64  61  88 CALM      30.09R
6HR MIN TEMP:  63; 6HR MAX TEMP:  68;

WASHINGTON +   FAIR      64  62  93 CALM      30.08R
6HR MIN TEMP:  58; 6HR MAX TEMP:  65;


$$

INZ062-063-066-070>080-084-089>092-101300-
SOUTH CENTRAL AND SOUTHEAST INDIANA

CITY           SKY/WX    TMP DP  RH WIND       PRES   REMARKS
BLOOMINGTON    FAIR      63  59  87 CALM      30.10R
6HR MIN TEMP:  57; 6HR MAX TEMP:  64;


$$



USA.gov is the U.S. government's official web portal to all federal, state and local government web resources and services.